Weather Roundup
Issued by NWS

Home | Current Version | Previous Version | Graphics & Text | Print | Product List | Glossary Off
Versions: 1 2 3 4 5 6 7 8 9 10 11 12 13 14 15 16 17 18 19 20 21 22 23 24 25 26 27 28 29 30 31 32 33 34 35 36 37 38 39 40 41 42 43 44 45 46 47 48 49 50

000
NZUS93 KARX 040259
HRRWXR

CURRENT HOURLY OBSERVATIONS ACROSS
MUCH OF THE UPPER MISSISSIPPI VALLEY
NATIONAL WEATHER SERVICE LA CROSSE WI
1000 PM CDT TUE MAY 03 2016


...SOUTHEAST MINNESOTA...


CITY           SKY/WX    TMP DP  RH WIND       PRES   REMARKS
ROCHESTER      PTCLDY    57  44  62 N16       29.71R
ROCHESTER/MAYO FAIR      61  39  44 NW9       29.70R
WINONA         CLOUDY    57  45  62 CALM      29.69R
AUSTIN         CLEAR     59  39  47 N8        29.71R
ALBERT LEA     CLEAR     63  28  27 N13G22    29.72R
DODGE CENTER   CLEAR     57  34  41 N14       29.72R
PRESTON        MOCLDY    54  43  66 N3        29.69R
OWATONNA       CLEAR     59  30  33 N12       29.74R
FARIBAULT      CLEAR     63  30  29 N9        29.74R
$$

...ELSEWHERE IN MINNESOTA...


CITY           SKY/WX    TMP DP  RH WIND       PRES   REMARKS
MINNEAPOLIS    CLEAR     62  25  24 N16G23    29.75R
INTNL FALLS    CLEAR     48  32  53 N3        29.92R
DULUTH         CLEAR     52  32  46 N13G25    29.83R
RED WING       CLEAR     61  28  29 N6        29.71R
REDWOOD FALLS  CLEAR     60  25  26 N15G22    29.81R
MANKATO        CLEAR     61  28  29 N15       29.76R
WORTHINGTON    CLEAR     55  35  47 N17       29.84R
FAIRMONT       PTCLDY    59  19  21 NW15G21   29.77R
$$

...SOUTHWEST WISCONSIN...


CITY           SKY/WX    TMP DP  RH WIND       PRES   REMARKS
LA CROSSE      CLOUDY    51  49  92 CALM      29.68R
PRAIRIE DU CHI LGT RAIN  61  44  53 W18       29.66S
LONE ROCK      TSTM      55  45  68 N25G36    29.69R
PLATTEVILLE    MOCLDY    56  44  63 SW10      29.67F
FORT MC COY    CLOUDY    49  48  97 CALM      29.69F
MAUSTON-NEW LI CLOUDY    49  48  96 S6        29.67F
VIROQUA        CLOUDY    49  47  93 S5        29.68R
WIS DELLS      LGT RAIN  50  46  86 N6        29.71R
$$

...ELSEWHERE IN WISCONSIN...


CITY           SKY/WX    TMP DP  RH WIND       PRES   REMARKS
MILWAUKEE      LGT RAIN  60  41  49 SW12      29.66F
MADISON        LGT RAIN  55  44  66 N38G49    29.70R
GREEN BAY      LGT RAIN  50  47  89 CALM      29.68F
EAU CLAIRE     NOT AVBL
BLACK RVR FLS  CLOUDY    50  50 100 CALM      29.69R
MEDFORD        FOG       41  41 100 CALM      29.71R VSB 3/4
WAUSAU         PTCLDY    47  44  90 NE5       29.70R
WIS RAPIDS     CLOUDY    48  46  93 CALM      29.70F
MARSHFIELD     CLOUDY    49  45  86 CALM      29.69F
RICE LAKE      CLEAR     56  31  38 N10       29.75R
$$

...NORTHEAST IOWA...


CITY           SKY/WX    TMP DP  RH WIND       PRES   REMARKS
WATERLOO       CLOUDY    60  46  59 W21G26    29.69F
DUBUQUE        PTCLDY    53  44  71 SW8       29.68F
DECORAH        LGT RAIN  57  50  77 NW9G21    29.68R
MASON CITY     PTCLDY    61  40  45 NW16      29.73R
CHARLES CITY   MOCLDY    61  48  63 W15G26    29.69S
OELWEIN        CLOUDY    61  46  59 SW14      29.69F
$$

...ELSEWHERE IN IOWA...


CITY           SKY/WX    TMP DP  RH WIND       PRES   REMARKS
DES MOINES     PTCLDY    59  43  55 SW10      29.79F
IOWA CITY      CLEAR     58  44  60 SW8       29.76F
FORT DODGE     MOCLDY    61  45  55 W14G22    29.78R
MARSHALLTOWN   CLOUDY    59  45  59 W13       29.73F
CEDAR RAPIDS   CLEAR     56  46  69 SW8       29.72F
$$

...NORTHERN ILLINOIS...


CITY           SKY/WX    TMP DP  RH WIND       PRES   REMARKS
CHICAGO-OHARE  CLOUDY    60  40  47 SW12      29.72F
CHICAGO-MIDWAY CLOUDY    62  38  40 SW13      29.74F
MOLINE           N/A     62  41  46 SW13      29.74F
ROCKFORD       MOCLDY    60  42  51 SW10      29.73F
PEORIA         MOCLDY    58  39  49 SW9       29.81F
$$

NOTE: "FAIR" INDICATES FEW OR NO CLOUDS BELOW 12,000 FEET WITH NO
SIGNIFICANT WEATHER AND/OR OBSTRUCTIONS TO VISIBILITY. WIND
SPEEDS ARE IN MILES-PER-HOUR.




USA.gov is the U.S. government's official web portal to all federal, state and local government web resources and services.